Location: Navalespino
(40.5894°N, 4.2660°W)
Time: 23:00:37
(UTC+00:00)

CZ-4 R/B - Pass Details

Date: 18 April 2024
Orbit: 516 x 572 km, 97.6° (Epoch: 23 May)

Event Time Altitude Azimuth Distance (km) Brightness Sun altitude
Rises 19:29:48 0° 160° (SSE) 2,712 4.5 -6.2°
Reaches altitude 10° 19:31:57 10° 158° (SSE) 1,813 3.6 -6.6°
Maximum altitude 19:35:50 67° 76° (ENE) 590 1.3 -7.3°
Drops below altitude 10° 19:39:41 10° 353° (N) 1,794 4.3 -8.0°
Sets 19:41:47 0° 351° (N) 2,680 5.3 -8.3°
